This is the latest recevied weather packets stored in our database for station/object KD9NSC. If no packets are shown the sender has not sent any weather packets the latest 1 day(s).
| Time | Temp. | Humidity | Pressure | Rain* | Wind** | Luminosity | Snow |
|---|---|---|---|---|---|---|---|
| 1778023748 | 10.56° C | 71% | 1010.1 hPa | 0 mm | 0 m/s | 7 W/m² | - |
| 1778023445 | 11.11° C | 78% | 1010.1 hPa | 0 mm | 0 m/s | 8 W/m² | - |
| 1778023142 | 11.11° C | 77% | 1010.1 hPa | 0 mm | 0 m/s | 11 W/m² | - |
| 1778022839 | 11.11° C | 73% | 1010.2 hPa | 0 mm | 0 m/s | 10 W/m² | - |
| 1778022537 | 11.11° C | 74% | 1010.2 hPa | 0 mm | 0 m/s | 11 W/m² | - |
| 1778022234 | 11.11° C | 72% | 1010.3 hPa | 0 mm | 0 m/s | 11 W/m² | - |
| 1778021931 | 11.67° C | 72% | 1010.5 hPa | 0 mm | 0 m/s | 13 W/m² | - |
| 1778021628 | 11.67° C | 73% | 1010.6 hPa | 0 mm | 0 m/s | 16 W/m² | - |
| 1778021323 | 11.67° C | 70% | 1010.6 hPa | 0 mm | 0 m/s | 17 W/m² | - |
| 1778021021 | 11.67° C | 67% | 1010.4 hPa | 0 mm | 0 m/s | 18 W/m² | - |
| 1778020718 | 11.67° C | 65% | 1010.6 hPa | 0 mm | 0 m/s | 20 W/m² | - |
| 1778020415 | 11.67° C | 66% | 1010.5 hPa | 0 mm | 0 m/s | 20 W/m² | - |
| 1778020111 | 11.67° C | 68% | 1010.7 hPa | 0 mm | 0 m/s | 24 W/m² | - |
| 1778019807 | 11.67° C | 65% | 1010.6 hPa | 0 mm | 0 m/s | 23 W/m² | - |
| 1778019504 | 11.67° C | 63% | 1010.5 hPa | 0 mm | 0 m/s | 23 W/m² | - |
| 1778019201 | 11.67° C | 63% | 1010.7 hPa | 0 mm | 0 m/s | 27 W/m² | - |
| 1778018898 | 11.11° C | 62% | 1010.7 hPa | 0 mm | 0 m/s | 26 W/m² | - |
| 1778018595 | 11.11° C | 66% | 1010.7 hPa | 0 mm | 0 m/s | 28 W/m² | - |
| 1778018293 | 11.11° C | 64% | 1010.6 hPa | 0 mm | 0 m/s | 22 W/m² | - |
| 1778017991 | 11.11° C | 65% | 1010.6 hPa | 0 mm | 0 m/s | 19 W/m² | - |
| 1778017689 | 10.56° C | 64% | 1010.9 hPa | 0 mm | 0 m/s | 22 W/m² | - |
| 1778017386 | 10.56° C | 67% | 1010.7 hPa | 0 mm | 0 m/s | 19 W/m² | - |
| 1778017083 | 10.56° C | 63% | 1010.7 hPa | 0 mm | 0 m/s | 19 W/m² | - |
| 1778016781 | 10.56° C | 61% | 1010.4 hPa | 0 mm | 0 m/s | 25 W/m² | - |
| 1778016476 | 10.56° C | 63% | 1010.8 hPa | 0 mm | 0 m/s | 22 W/m² | - |
* Rain latest hour (hover to see other rain measurements)
** Current wind speed in m/s (hover to see current wind gust speed)